#timestamp,LO_Frequency,Hit,StdDev 
1578297615.5,286046995.7,N
1578297635.3,286046992.5,N
1578297655.2,286046990.1,N
1578297675.0,286046988.9,N
1578297675.9,286046988.9,Y
1578297695.7,286046995.1,P
1578297715.6,286046992.7,P
1578297735.4,286046994.5,P
1578297755.3,286046995.1,Y
1578297775.1,286047007.4,P
1578297795.8,286047010.5,N
1578297815.7,286047012.6,N
1578297835.5,286047016.4,N
1578297855.4,286047022.9,Y
1578297875.2,286047017.5,P
1578297895.0,286047017.4,P
1578297895.9,286047017.4,P
1578297915.8,286047018.6,Y
1578297935.6,286046996.8,P
1578297955.4,286046994.5,N
1578297975.3,286046991.5,N
1578297995.1,286046984.0,N
1578298015.9,286046980.2,N
1578298035.7,286046977.7,N
1578298055.5,286046984.7,N
1578298075.4,286046984.0,N
1578298095.2,286046975.4,N
1578298115.0,286046976.0,N
1578298116.0,286046976.0,N
1578298135.8,286046977.9,N
1578298155.6,286046976.4,N
1578298175.5,286046968.0,N
1578298195.3,286046967.3,N
1578298215.1,286046966.0,N
1578298235.9,286046965.3,N
1578298255.7,286046970.6,N
1578298275.6,286046973.0,N
1578298295.4,286046973.6,N
1578298315.2,286046970.0,N
1578298335.1,286046969.6,N
1578298336.0,286046969.6,N
1578298355.8,286046972.2,N
1578298375.6,286046972.1,N
1578298395.5,286046971.5,N
1578298415.3,286046971.7,N
1578298435.2,286046972.3,N
1578298455.9,286046973.7,N
1578298475.7,286046973.3,N
1578298495.6,286046975.3,Y
1578298515.4,286046998.9,P
1578298535.3,286046998.4,N
1578298555.1,286047000.7,N
1578298556.0,286047000.7,N
1578298575.8,286047002.7,N
1578298595.7,286046999.9,N
1578298615.5,286047001.0,N
1578298635.3,286047001.1,N
1578298655.2,286046998.6,N
1578298675.0,286046999.6,N
1578298675.9,286046999.6,N
1578298695.8,286047002.3,N
1578298715.6,286047003.3,N
1578298735.4,286047010.5,N
1578298755.3,286047009.3,N
1578298775.1,286047007.4,N
1578298795.8,286047010.2,N
1578298815.7,286047014.0,N
1578298835.5,286047014.5,N
1578298855.4,286047021.5,N
1578298875.2,286047018.6,N
1578298895.1,286047013.1,N
1578298896.0,286047013.1,N
1578298915.8,286047009.9,N
1578298935.6,286047010.3,N
1578298955.5,286047008.9,N
1578298975.3,286047008.7,N
1578298995.2,286047008.9,N
1578299015.9,286047008.7,N
1578299035.7,286047003.6,N
1578299055.6,286047007.5,N
1578299075.4,286047004.1,N
1578299095.3,286047006.4,N
1578299115.1,286047006.7,N
1578299116.0,286047006.7,N
1578299135.8,286047004.7,N
1578299155.7,286047001.6,N
1578299175.5,286047004.3,N
1578299195.3,286047000.7,N
1578299215.2,286047000.0,N
1578299235.0,286047001.8,N
1578299235.9,286047001.8,N
1578299255.8,286046999.0,N
1578299275.6,286046998.3,N
1578299295.4,286046995.1,N
1578299315.3,286046996.6,N
1578299335.1,286046999.0,N
1578299355.7,286046997.8,N
1578299375.5,286046997.9,N
1578299395.3,286047000.1,N
1578299415.2,286047001.9,N
1578299435.0,286047005.0,N
1578299435.9,286047005.0,N
1578299455.8,286046998.8,N
1578299475.6,286047000.8,N
1578299495.4,286046996.6,N
1578299515.3,286047003.7,N
1578299535.1,286047002.2,N
1578299555.9,286047001.1,N
1578299575.7,286047002.4,N
1578299595.5,286046998.1,N
1578299615.4,286046995.3,N
1578299635.2,286046996.6,N
1578299655.0,286046996.0,N
1578299655.9,286046996.0,N
1578299675.8,286046994.0,N
1578299695.6,286046993.5,N
1578299715.5,286046997.3,N
1578299735.3,286046997.6,N
1578299755.1,286046998.9,N
1578299775.9,286046997.8,N
1578299795.7,286046997.7,N
1578299815.5,286046996.4,N
1578299835.4,286046996.4,N
1578299855.2,286046995.2,N
1578299875.1,286046998.0,N
1578299876.0,286046998.0,N
1578299895.8,286046992.2,N
1578299915.6,286046990.0,Y
1578299935.5,286046992.8,P
1578299955.3,286046992.3,N
1578299975.2,286046993.3,N
1578299995.9,286047000.8,N
1578300015.7,286046999.4,N
1578300035.6,286047001.7,N
1578300055.4,286047000.9,N
1578300075.2,286047004.2,N
1578300095.1,286046998.2,N
1578300096.0,286046998.2,N
1578300115.8,286047000.6,N
1578300135.7,286046996.9,N
1578300155.5,286046993.6,N
1578300175.3,286046999.4,N
1578300195.2,286046998.4,N
1578300215.0,286047003.3,N
1578300215.9,286047003.3,N
1578300235.7,286047005.4,N
1578300255.6,286047008.8,N
1578300275.4,286047003.3,N
1578300295.3,286047002.1,N
1578300315.1,286046998.1,N
1578300316.0,286046998.1,N
1578300335.8,286046998.3,N
1578300355.7,286046995.9,N
1578300375.5,286046995.7,N
1578300395.3,286046994.9,N
1578300415.2,286046999.4,N
1578300435.0,286047001.8,N
1578300435.9,286047001.8,N
1578300455.8,286046998.4,N
1578300475.6,286047008.9,N
1578300495.4,286047006.8,N
1578300515.3,286047008.9,N
1578300535.1,286047003.4,N
1578300555.9,286047003.7,N
1578300575.7,286047008.0,N
1578300595.5,286047007.4,N
1578300615.4,286047003.1,N
1578300635.2,286047000.2,N
1578300655.0,286047002.0,N
1578300655.9,286047002.0,N
1578300675.8,286047001.8,N
1578300695.6,286046998.5,N
1578300715.5,286046999.0,N
1578300735.3,286047005.2,N
1578300755.1,286047005.6,N
1578300775.9,286047008.2,N
1578300795.7,286047016.2,Y
1578300815.5,286047017.4,P
1578300835.4,286047016.6,N
1578300855.2,286047016.8,N
1578300875.1,286047011.6,N
1578300876.0,286047011.6,N
1578300895.8,286047012.5,N
1578300915.6,286047011.4,N
1578300935.5,286047010.1,N
1578300955.3,286047008.0,N
1578300975.1,286047001.9,N
1578300995.9,286046998.7,N
1578301015.7,286046993.1,N
1578301035.6,286046988.2,N
1578301055.4,286046986.2,N
1578301075.2,286046982.3,N
1578301095.1,286046981.6,N
1578301096.0,286046981.6,N
1578301115.8,286046980.5,N
1578301135.6,286046981.6,N
1578301155.5,286046984.1,N
1578301175.3,286046989.8,N
1578301195.2,286046988.5,N
